Tracking 17558 objects as of 10-February-2016
HD Live streaming from Space Station
objects crossing your sky now

SL-14 R/B

Track SL-14 R/B now!
10-day predictions


NORAD ID: 16720
Int'l Code: 1986-034B
Perigee: 613.3 km
Apogee: 639.5 km
Inclination: 82.6 °
Period: 97.1 minutes
Semi major axis: 6997 km
RCS: 3.5564 m2 (large)
Launch date: May 15, 1986
Source: Commonwealth of Independent States (former USSR) (CIS)
Launch site: PLESETSK MISSILE AND SPACE COMPLEX (PKMTR)

Note: This is a ROCKET BODY
Your satellite tracking list
Your tracking list is empty





NASA's NSSDC Master Catalog

Two Line Element Set (TLE):
1 16720U 86034B   16040.90582970  .00000300  00000-0  33751-4 0  9994
2 16720  82.5567 341.3545 0018784 290.6147 130.1982 14.8319404966147
Source of the keplerian elements: AFSPC

N2YO: 553